Powrót do katalogu

STARLINK-30070

AktywnyŁącznośćVLEO
NORAD 56707·PAYLOAD·🇺🇸 United States

Wystrzelony May 19, 2023 z Cape Canaveral Space Force Station

Loading…

Następne Przeloty (najbliższe 24 godziny)

TLE

ŚwieżeSource: CelesTrak SupGP

Epoka: Sep 15, 2026, 02:34 UTC

1 56707C 23067V   26258.10743056  .00004588  00000+0  16621-3 0  2583
2 56707  43.0002 281.3986 0001505 263.8520 261.7761 15.27571817    15

Śledź STARLINK-30070 w czasie rzeczywistym z AllMySat

Download on the App Store